Location: Bernay
(48.6766°N, 2.9386°E)
Time: 00:13:58
(UTC+00:00)

Meteor 1-16 Rocket - Pass Details

Date: 12 January 2026
Orbit: 789 x 905 km, 81.2° (Epoch: 15 February)

Event Time Altitude Azimuth Distance (km) Brightness Sun altitude
Rises 18:04:58 0° 349° (NNW) 3,299 7.3 -17.3°
Reaches altitude 10° 18:07:21 10° 351° (N) 2,364 6.5 -17.7°
Maximum altitude 18:12:40 78° 78° (ENE) 816 3.9 -18.6°
Drops below altitude 10° 18:18:00 10° 165° (SSE) 2,372 6.5 -19.4°
Sets 18:20:24 0° 166° (SSE) 3,310 7.3 -19.8°
